Погода в Де-Кооге

Нидерланды     53°05′59″N   4°45′46″E
темп.,
°C
ветер,
м/с
пор.,
м/с
влажн.,
%
обл.,
%
осадки,
мм/ч
давл.,
гПа
погр.,
м
25 февраля, чт
чт2501:00+9ююз91284100 0.0 1023110
04:00+9ююз91385100 0.0 1022131
07:00+8юз91490100 0.0 1022177
10:00+7юз81390100 0.0 1024166
13:00+7зюз7994100 0.0 1026105
16:00+7зсз4590100 0.0 102743
19:00+7сз3486100 0.0 102825
22:00+7сз3483100 0.0 103023
26 февраля, пт
пт2601:00+7сз448293 0.0 103126
04:00+6сз568248 0.0 103260
07:00+6сз568324 0.0 103383
10:00+6сз45850 0.0 103496
13:00+6сз55840 0.0 1036107
16:00+6сз46850 0.0 1035114
19:00+6сз45850 0.0 103677
22:00+5сз44840 0.0 103755
27 февраля, сб
сб2701:00+5сз44820 0.0 103760
04:00+5зсз34803 0.0 103647
07:00+5сз33802 0.0 103742
10:00+5сз12810 0.0 103726
13:00+6зсз22770 0.0 103836
16:00+6зсз22800 0.0 103730
19:00+6ссз33820 0.0 103725
22:00+6ссв33850 0.0 103724
28 февраля, вс
вс2801:00+5св22860 0.0 103722
04:00+5всв12870 0.0 103622
07:00+5всв11860 0.0 103622
10:00+5всв22830 0.0 103627
13:00+6св33820 0.0 103657
16:00+6св56820 0.0 1034107
19:00+6св68810 0.0 1033129
22:00+5всв68810 0.0 1034145
1 марта, пн
пн101:00+5в67840 0.0 1033139
04:00+5в67860 0.0 1031177
07:00+4в68860 0.0 1031252
10:00+4в67800 0.0 1031280
13:00+5в468022 0.0 1030252
16:00+6вюв44760 0.0 102968
19:00+7в34730 0.0 102925
22:00+7юв44770 0.0 103027